[Iaude] MPEC K01: 2024 JQ17 [a=0.99,e=0.25,i=10.9,H=25.8]
    mpec at cfa.harvard.edu 
    mpec at cfa.harvard.edu
       
    Thu May 16 06:42:00 EDT 2024
    
    
  
M.P.E.C. 2024-K01                                  Issued 2024 May 16, 10:40 UT
     The Minor Planet Electronic Circulars contain information on unusual
         minor planets, routine data on comets and natural satellites,
         and occasional editorial announcements.  They are published
    on behalf of Division F of the International Astronomical Union by the
          Minor Planet Center, Smithsonian Astrophysical Observatory,
                          Cambridge, MA 02138, U.S.A.
			  
             Prepared using the Tamkin Foundation Computer Network
                              MPC at CFA.HARVARD.EDU
            URL https://www.minorplanetcenter.net/    ISSN 1523-6714
                                   2024 JQ17                                    
Observations:
     K24J17Q* B2024 05 14.95110 16 06 34.26 +07 59 49.5          19.5 GXEK001G03
     K24J17Q  B2024 05 14.95795 16 06 33.74 +08 03 42.6          19.3 GXEK001G03
     K24J17Q  B2024 05 14.96457 16 06 33.21 +08 07 27.4          18.7 GXEK001G03
     K24J17Q 1C2024 05 15.00014 16 06 32.03 +08 27 22.9          20.0 VXEK001033
     K24J17Q 1C2024 05 15.00048 16 06 32.00 +08 27 34.5          20.3 VXEK001033
     K24J17Q 1C2024 05 15.00081 16 06 31.98 +08 27 46.0          20.2 VXEK001033
     K24J17Q KC2024 05 15.01987216 06 28.53 +08 38 47.7          19.1 RoEK001K88
     K24J17Q KC2024 05 15.02100716 06 28.48 +08 39 26.9          19.2 RoEK001K88
     K24J17Q KC2024 05 15.02271116 06 28.35 +08 40 25.1                oEK001K88
     K24J17Q KC2024 05 15.03975516 06 27.10 +08 50 08.4          19.3 RoEK001K88
     K24J17Q KC2024 05 15.04202216 06 26.95 +08 51 25.7          19.2 RoEK001K88
     K24J17Q KC2024 05 15.04429316 06 26.82 +08 52 44.1          19.2 RoEK001K88
     K24J17Q 1C2024 05 15.06346 16 06 27.56 +09 03 30.9          19.8 VXEK001033
     K24J17Q 1C2024 05 15.06380 16 06 27.53 +09 03 42.8          20.0 VXEK001033
     K24J17Q 1C2024 05 15.06414 16 06 27.48 +09 03 54.2          19.2 VXEK001033
     K24J17Q mC2024 05 15.13962616 06 50.100+09 48 28.10         18.85GVEK001I52
     K24J17Q mC2024 05 15.13996616 06 50.110+09 48 40.50         19.08GVEK001I52
     K24J17Q mC2024 05 15.14013816 06 50.120+09 48 46.40         20.30GVEK001I52
     K24J17Q KB2024 05 15.28045 16 06 35.882+11 11 14.50         19.0 GVEK001734
     K24J17Q KB2024 05 15.28404 16 06 35.503+11 13 21.90         19.1 GVEK001734
     K24J17Q KB2024 05 15.28753 16 06 35.172+11 15 26.60         19.0 GVEK001734
     K24J17Q KC2024 05 15.41152 16 06 31.133+12 29 37.21         20.0 GVEK001U52
     K24J17Q KC2024 05 15.41606 16 06 30.809+12 32 23.75         19.3 GVEK001U52
     K24J17Q KC2024 05 15.42064 16 06 30.343+12 35 07.48         19.3 GVEK001U52
     K24J17Q KC2024 05 15.87030 16 06 47.76 +17 15 41.4          19.2 VZEK001M38
     K24J17Q KC2024 05 15.87427 16 06 47.50 +17 18 14.9          19.1 VZEK001M38
     K24J17Q KC2024 05 15.96173916 06 40.85 +18 15 01.5          19.2 RoEK001K88
     K24J17Q KC2024 05 15.96614616 06 40.48 +18 17 53.9          19.3 RoEK001K88
     K24J17Q KC2024 05 15.96706416 06 40.36 +18 18 28.4          19.3 RoEK001K88
     K24J17Q KC2024 05 15.99259016 06 38.17 +18 35 06.0          19.4 RoEK001K88
     K24J17Q KC2024 05 15.99542816 06 37.91 +18 36 56.0          19.5 RoEK001K88
     K24J17Q KC2024 05 15.99827016 06 37.68 +18 38 47.8          19.5 RoEK001K88
     K24J17Q KC2024 05 16.04486116 06 39.377+19 09 00.83         19.0 GVEK001J95
     K24J17Q KC2024 05 16.04696016 06 39.226+19 10 22.76         19.2 GVEK001J95
     K24J17Q KC2024 05 16.04848716 06 39.096+19 11 22.70         18.6 GVEK001J95
     K24J17Q KC2024 05 16.04990716 06 38.959+19 12 19.08         18.9 GVEK001J95
     K24J17Q KC2024 05 16.05107816 06 38.892+19 13 04.76         19.1 GVEK001J95
     K24J17Q KC2024 05 16.21514516 06 48.21 +21 02 39.2          19.1 GVEK001H21
     K24J17Q KC2024 05 16.21672716 06 48.06 +21 03 42.7          19.2 GVEK001H21
     K24J17Q KC2024 05 16.21836116 06 47.90 +21 04 48.6          19.1 GVEK001H21
Observer details:
033 Karl Schwarzschild Observatory, Tautenburg.  Observers C. Heogner, F.
    Ludwig, M. Hartmann, B. Stecklum.  Measurer B. Stecklum.  1.34-m f/3
    Schmidt + CCD.
734 Farpoint Observatory, Eskridge.  Observers D. Cromer, G. Hug, D. Goodin,
    R. Valentine, P. Lessig.  Measurer G. Hug.  0.69-m f/3.54 reflector + CMO.
G03 Capricornus Observatory, Csokako.  Observer T. Maroti.  0.28-m f/2.2
    reflector + CMO.
H21 Astronomical Research Observatory, Westfield.  Observer R. Holmes.
    Measurers T. Linder, R. Holmes, L. Horn.  0.76-m f/3.0 astrograph + CCD.
I52 Steward Observatory, Mt. Lemmon Station.  Observer K. W. Wierzchos.
    Measurers T. Beuden, V. F. Carvajal, D. Fay, J. B. Fazekas, D. C. Fuls, A.
    R. Gibbs, A. D. Grauer, H. Groeller, J. K. Hogan, R. A. Kowalski, S. M.
    Larson, G. J. Leonard, D. Rankin, R. L. Seaman, F. C. Shelly, K. W.
    Wierzchos.  1.0-m prime focus + CCD.
J95 Great Shefford.  Observer P. Birtwhistle.  0.41-m f/6.3 Schmidt-Cassegrain
    + CCD.
K88 GINOP-KHK, Piszkesteto.  Observer K. Sarneczky.  0.60-m Schmidt + CCD.
M38 Harsona Observatory, Nyiregyhaza.  Observer T. Elek.  0.20-m f/3 reflector
    + CCD.
U52 Shasta Valley Observatory, Grenada.  Observers J. E. Rogers, B. Haeusler.
    Measurers J. E. Rogers, D. Parrott.  0.30-m f/5.2 Helin Telescope + CCD.
Orbital elements:
2024 JQ17                                                Earth MOID = 0.0259 AU
Epoch 2024 Mar. 31.0 TT = JDT 2460400.5                 Veres                   
M 229.48264              (2000.0)            P               Q                  
n   0.99334078     Peri.  117.69672     +0.96609055     +0.21343472             
a   0.9948033      Node   230.35641     -0.24707333     +0.92760985             
e   0.2470190      Incl.   10.87727     +0.07499211     +0.30657069             
P   0.99           H   25.89          G   0.15           U   6                  
Residuals in seconds of arc
240514 G03  0.5-  1.2-    240515 033  0.3-  0.3+    240515 K88  0.2-  0.7-
240514 G03  0.3-  0.1-    240515 I52  0.1-  0.5-    240515 K88  0.4+  0.1+
240514 G03  0.3-  0.2+    240515 I52  0.2+  0.0     240515 K88  0.2+  0.8-
240515 033  0.1-  0.3+    240515 I52  0.4+  0.2-    240515 K88  0.4+  0.0
240515 033  0.2-  0.3+    240515 734  0.2+  0.9+    240516 J95  0.2+  0.4+
240515 033  0.1-  0.6+    240515 734  0.3-  0.3+    240516 J95  0.5+  0.2-
240515 K88  0.7-  0.0     240515 734  0.3-  0.2+    240516 J95  0.4+  0.3-
240515 K88  0.2-  0.4+    240515 U52  0.3-  0.2-    240516 J95  0.1+  0.3+
240515 K88  0.2-  0.4+    240515 U52  0.8+  1.4+    240516 J95  0.5+  0.1-
240515 K88  0.3-  0.7+    240515 U52  0.1-  0.7-    240516 H21  0.1-  0.1+
240515 K88  0.2-  0.3+    240515 M38  0.3-  1.2-    240516 H21  0.0   0.1-
240515 K88  0.3+  0.9+    240515 M38  0.0   1.8-    240516 H21  0.0   0.1+
240515 033  0.2+  0.4+    240515 K88  0.1+  0.2+
240515 033  0.1+  0.6+    240515 K88  0.4+  0.6+
Ephemeris:
2024 JQ17                a,e,i = 0.99, 0.25, 11                  q = 0.7491
Date    TT    R. A. (2000) Decl.     Delta      r    Elong.  Phase     V
2024 04 16    15 53 11.2 -43 43 31   0.1812  1.1395   135.3    38.3    24.0
...
2024 05 01    16 03 17.2 -38 01 33   0.09425 1.0899   149.7    27.8    22.2
...
2024 05 09    16 05 43.2 -25 03 06   0.05259 1.0601   163.8    15.4    20.5
...
2024 05 15    16 06 32.7 +08 30 14   0.02913 1.0364   151.0    28.2    19.5
2024 05 16    16 06 40.7 +18 42 03   0.02716 1.0324   141.3    37.8    19.6
2024 05 17    16 06 50.2 +30 02 35   0.02617 1.0283   130.1    48.8    19.9
...
2024 05 23    16 12 47.1 +83 51 24   0.03949 1.0033    75.6   102.2    22.6
...
2024 05 31    04 04 19.0 +74 04 22   0.07659 0.9689    52.3   124.1    25.4
...
2024 06 15    04 10 44.9 +61 16 44   0.1559  0.9031    40.6   133.0    27.6
                      (Last issue was M.P.E.C. 2024-J313)                       
M. P. C. Staff               (C) Copyright 2024 MPC           M.P.E.C. 2024-K01
    
    
More information about the Iaude
mailing list